TimeEDT,TemperatureF,Dew PointF,Humidity,Sea Level PressureIn,VisibilityMPH,Wind Direction,Wind SpeedMPH,Gust SpeedMPH,PrecipitationIn,Events,Conditions,WindDirDegrees,DateUTC
12:54 AM,66.9,64.0,90,29.96,7.0,Calm,Calm,-,N/A,,Partly Cloudy,0,2013-09-21 04:54:00
1:54 AM,68.0,64.0,87,29.96,7.0,Calm,Calm,-,N/A,,Overcast,0,2013-09-21 05:54:00
2:54 AM,66.9,64.0,90,29.95,8.0,Calm,Calm,-,0.00,,Overcast,0,2013-09-21 06:54:00
3:54 AM,66.9,64.9,93,29.93,7.0,Calm,Calm,-,0.00,,Overcast,0,2013-09-21 07:54:00
4:54 AM,66.9,64.9,93,29.92,7.0,Calm,Calm,-,N/A,,Mostly Cloudy,0,2013-09-21 08:54:00
5:54 AM,66.9,64.9,93,29.91,5.0,Calm,Calm,-,N/A,,Overcast,0,2013-09-21 09:54:00
6:54 AM,66.0,64.0,93,29.90,4.0,Calm,Calm,-,N/A,,Clear,0,2013-09-21 10:54:00
7:54 AM,66.0,64.9,96,29.91,3.0,Calm,Calm,-,N/A,,Partly Cloudy,0,2013-09-21 11:54:00
8:54 AM,68.0,66.0,93,29.91,6.0,ESE,5.8,-,N/A,,Mostly Cloudy,120,2013-09-21 12:54:00
9:54 AM,72.0,66.0,81,29.91,10.0,SSE,4.6,-,N/A,,Overcast,160,2013-09-21 13:54:00
10:54 AM,73.9,66.9,79,29.90,10.0,SSE,5.8,-,N/A,,Overcast,150,2013-09-21 14:54:00
11:54 AM,79.0,68.0,69,29.87,10.0,South,5.8,-,N/A,,Mostly Cloudy,180,2013-09-21 15:54:00
12:54 PM,82.0,66.9,60,29.84,10.0,SSW,8.1,-,N/A,,Scattered Clouds,200,2013-09-21 16:54:00
1:54 PM,84.9,66.0,53,29.81,10.0,SW,9.2,-,N/A,,Partly Cloudy,220,2013-09-21 17:54:00
2:54 PM,84.0,66.0,55,29.78,10.0,SSW,4.6,-,N/A,,Partly Cloudy,200,2013-09-21 18:54:00
3:54 PM,84.0,64.9,53,29.76,10.0,SSW,8.1,-,N/A,,Clear,200,2013-09-21 19:54:00
4:54 PM,82.9,66.0,56,29.75,10.0,SSW,4.6,-,N/A,,Clear,200,2013-09-21 20:54:00
5:54 PM,78.1,69.1,74,29.76,10.0,SSE,8.1,-,N/A,,Mostly Cloudy,160,2013-09-21 21:54:00
6:54 PM,75.0,71.1,87,29.75,10.0,SSE,5.8,-,0.00,Rain,Light Rain,160,2013-09-21 22:54:00
7:54 PM,73.9,71.1,91,29.73,10.0,SSE,8.1,-,0.00,,Scattered Clouds,150,2013-09-21 23:54:00
8:54 PM,73.9,71.1,91,29.74,10.0,SSE,6.9,-,N/A,,Scattered Clouds,160,2013-09-22 00:54:00
9:54 PM,73.0,70.0,90,29.74,10.0,SSE,5.8,-,N/A,,Scattered Clouds,160,2013-09-22 01:54:00
10:54 PM,73.0,70.0,90,29.73,10.0,Calm,Calm,-,0.00,,Partly Cloudy,0,2013-09-22 02:54:00
11:54 PM,73.0,70.0,90,29.72,10.0,Variable,3.5,-,N/A,,Overcast,0,2013-09-22 03:54:00